Regional Weather Roundup
Issued by NWS

Home | Current Version | Previous Version | Text Only | Print | Product List | Glossary On
Versions: 1 2 3 4 5 6 7 8 9 10 11 12 13 14 15 16 17 18 19 20 21 22 23 24 25 26 27 28 29 30 31 32 33 34 35 36 37 38 39 40 41 42 43 44 45 46 47 48 49 50
000
ASUS46 KLOX 270603
RWRCA

SOUTHERN CALIFORNIA WEATHER ROUNDUP
NATIONAL WEATHER SERVICE OXNARD CALIFORNIA
1000 PM PST SUN FEB 26 2017

NOTE: "FAIR" INDICATES FEW OR NO CLOUDS BELOW 12,000 FEET WITH NO
SIGNIFICANT WEATHER AND/OR OBSTRUCTIONS TO VISIBILITY.

  -  STATIONS PRECEEDED BY AN ASTERISK (*) ARE NOT NWS OR FAA
     STATIONS AND ARE NOT SUBJECT TO NWS AND FAA QUALITY CONTROL.

CAZ041-042-087-270700-
LA AND ORANGE COUNTY COASTAL AREAS


CITY           SKY/WX    TMP DP  RH WIND       PRES   REMARKS
L.A. DOWNTOWN  CLEAR     53  45  74 E6        29.97S
L.A. AIRPORT   MOCLDY    52  46  80 E6        29.97S
LONG BEACH     CLOUDY    52  45  77 E5        29.98S

CITY           SKY/WX    TMP DP  RH WIND       PRES   REMARKS
FULLERTON      CLOUDY    53  46  77 E3        29.97F
*GETTY CENTER    N/A     45  41  87 S7          N/A
HAWTHORNE      MOCLDY    52  46  80 E7        29.98S
*LEO CARRILLO    N/A     50  46  85 N5          N/A
*REDONDO BEACH   N/A     52  43  73 CALM      29.96S
SANTA ANA      MOCLDY    54  44  69 E6        29.98S
STA MONICA APT MOCLDY    52  44  74 E5        29.97S
*UCLA            N/A     50  41  71 CALM      29.94S

$$

CAZ547-548-048-270700-
LA COUNTY VALLEYS AND INLAND EMPIRE


CITY           SKY/WX    TMP DP  RH WIND       PRES   REMARKS
BURBANK        CLOUDY    51  41  68 SE10      29.96S
VAN NUYS       MOCLDY    48  43  82 SE3       29.96R

CITY           SKY/WX    TMP DP  RH WIND       PRES   REMARKS
CORONA AIRPORT CLEAR     44  42  93 CALM      29.99S
*CHATSWORTH      N/A     48  43  81 E2        29.99S
CHINO          CLEAR     45  41  86 N5        29.99F
*CLAREMONT       N/A     45  42  90 N2          N/A
MARCH AFB      CLOUDY    43  43  99 CALM      29.97S
*NORTHRIDGE      N/A     48  41  76 CALM        N/A
ONTARIO        MOCLDY    47  43  86 NW5       29.97F
*PASADENA        N/A     50  45  81 E1          N/A
RIVERSIDE      CLOUDY    49  45  86 CALM      29.98S
SAN BERNARDINO CLOUDY    50  42  74 CALM      29.98F
*SAN RAFAEL HI   N/A     44  40  87 S7          N/A
*WHITEMAN AP   NOT AVBL
*WHITTIER HILL   N/A     46  43  89 SE5         N/A
*WOODLAND HILL   N/A     48  41  76 S3          N/A

$$

CAZ054-055-270700-
LA AND SAN BERNARDINO COUNTY MOUNTAINS


CITY           SKY/WX    TMP DP  RH WIND       PRES   REMARKS
*ACTON           N/A     44  36  72 SW12        N/A
*BIG BEAR AIRP CLEAR     28  21  74 W13       29.87S WCI  18
*BIG PINES       N/A     26  22  83 SE2         N/A
*CHILAO          N/A     31  31 100 SE14        N/A  WCI  21
SANDBERG       NOT AVBL
*WARM SPRINGS    N/A     36  36  99 SW3G20      N/A

$$

CAZ028-029-059-060-099-270700-
ANTELOPE VALLEY AND SURROUNDING AREAS


CITY           SKY/WX    TMP DP  RH WIND       PRES   REMARKS
LANCASTER      MOCLDY    45  37  73 SW9       29.90S
PALMDALE       PTCLDY    44  37  76 W12       29.89F
*POPPY PARK      N/A     43  38  82 SW8G22      N/A

CITY           SKY/WX    TMP DP  RH WIND       PRES   REMARKS
29 PALMS       PTCLDY    48  34  58 CALM      29.92F
BARSTOW/DAGGET PTCLDY    49  36  61 SW15      29.85S
BISHOP         PTCLDY    37  23  56 W7        29.70S WCI  32
CHINA LAKE     PTCLDY    47  33  58 S20       29.78S
EDWARDS AFB    PTCLDY    45  38  76 SW16      29.86S
MOJAVE         CLOUDY    45  36  70 W12       29.86F
NEEDLES        CLEAR     59  36  42 SW10      29.84S
VICTORVILLE    PTCLDY    41  36  81 S20       29.86F WCI  32

$$

CAZ039-040-270700-
VENTURA AND SANTA BARBARA COUNTY COAST


CITY           SKY/WX    TMP DP  RH WIND       PRES   REMARKS
CAMARILLO      CLOUDY    51  46  83 NE5       29.96R
NWS OXNARD       N/A     52  44  74 CALM      29.94S
OXNARD AIRPORT PTCLDY    53  45  74 E7        29.95S
*POINT MUGU    MOCLDY    52  45  77 E3        29.96S
SBA APT/GOLETA MOCLDY    51  46  83 E5        29.94S
*SANTA BARBARA   N/A     54  44  70 CALM      30.02S
*VENTURA         N/A     51  46  82 E2        29.94S

$$

CAZ044-045-270700-
VENTURA COUNTY VALLEYS


CITY           SKY/WX    TMP DP  RH WIND       PRES   REMARKS
*SIMI VALLEY     N/A     48  43  84 E1        29.95F
*WESTLAKE VILL   N/A     46  42  87 N2        29.96S
*OJAI            N/A     48  46  92 CALM      29.91S
*FILLMORE        N/A     51  45  81 CALM      29.86S

$$

CAZ053-270700-
VENTURA COUNTY MOUNTAINS


CITY           SKY/WX    TMP DP  RH WIND       PRES   REMARKS
*LOCKWOOD VLY    N/A     27  27 100 N2          N/A
*ROSE VALLEY     N/A     37  39 100 MISG        N/A

$$

CAZ034-035-036-270700-
CENTRAL COAST AND SANTA YNEZ VALLEY


CITY           SKY/WX    TMP DP  RH WIND       PRES   REMARKS
SAN LUIS OBISP MOCLDY    49  43  80 CALM      29.94R
SANTA MARIA    CLOUDY    49  46  90 CALM      29.94S

CITY           SKY/WX    TMP DP  RH WIND       PRES   REMARKS
*CAL POLY SLO    N/A     48  45  87 CALM        N/A
*LOMPOC        MOCLDY    47  45  93 E3        29.93F
*PISMO BEACH     N/A     50  43  79 NE1       29.94R
*SANTA YNEZ    FAIR      43  41  93 CALM      29.93F

$$

CAZ037-038-051-270700-
SAN LUIS OBISPO COUNTY INTERIOR AND CUYAMA VALLEY


CITY           SKY/WX    TMP DP  RH WIND       PRES   REMARKS
*CUYAMA          N/A     40  38  91 CALM      29.90F
PASO ROBLES    CLOUDY    45  42  89 CALM      29.93S

$$

CAZ032-033-061-270700-
SOUTHERN DESERTS


CITY           SKY/WX    TMP DP  RH WIND       PRES   REMARKS
BLYTHE         CLEAR     57  39  51 SW15      29.88S
IMPERIAL       CLEAR     57  38  48 W14G23    29.90S
PALM SPRINGS   CLEAR     56  42  59 NW7       29.89S
THERMAL        CLEAR     56  39  53 N13       29.88R

$$

ELSEWHERE ACROSS THE WESTERN UNITED STATES AND MEXICO


CITY           SKY/WX    TMP DP  RH WIND       PRES   REMARKS
DENVER, CO     CLEAR     23   6  48 W8        29.75F WCI  14
GRAND CANYON,  CLOUDY    32  25  75 SW15      29.88R WCI  22
HONOLULU, HI   PTCLDY    74  62  66 E10       30.04S
KAHULUI, MAUI  PTCLDY    72  62  71 E9        30.03R
LAKE TAHOE, CA LGT SNOW  26  20  77 S18G36    29.66F VSB 3/4 WCI  13
LAS VEGAS, NV  CLOUDY    52  32  46 S10       29.77F
MAMMOTH LAKES, FAIR      22  15  74 SE17G25   29.69F WCI   8
MEXICO CITY, M CLEAR     63  30  29 S2        30.30S
PHOENIX, AZ    PTCLDY    56  38  50 SW3       29.91R
PORTLAND, OR   CLOUDY    38  35  89 S5        29.78R WCI  34
RENO, NV       MOCLDY    34  21  59 VRB3      29.69R
SALT LAKE CITY CLOUDY    40  20  44 S18       29.62F WCI  31
SAN DIEGO, CA  MOCLDY    57  48  72 SW5       30.01F
SAN FRANCISCO, LGT RAIN  47  43  86 W10       29.94R
SAN JOSE, CA   MOCLDY    50  40  68 W6        29.93S
SEATTLE, WA    CLOUDY    39  32  76 N6        29.75R WCI  35
TIJUANA, MEX   MOCLDY    52  46  82 CALM      30.01F

$$

STATION/POSITION TIME  TEMP    WIND        PRES    VSBY  WAVE
                       AIR SEA DIR/SP/G                  HT/PER
                 (UTC) (F)     (DEG/KT/KT) (MB)    (MI)  (FT/S)
POINT ARGUELLO B NOT AVBL
WEST SANTA BARBA 0450   54 55  120/  2/  4 1013.6S         5/17
POINT CONCEPTION NOT AVBL
EAST SANTA BARBA 0550          100/  8/ 10 1014.3R
SANTA MONICA BAY 0550   55 59  160/  6/  8 1014.0S         3/ 7



USA.gov is the U.S. government's official web portal to all federal, state and local government web resources and services.